Regional Weather Roundup
Issued by NWS Sterling, VA

Home | Current Version | Previous Version | Text Only | Print | Product List | Glossary Off
Versions: 1 2 3 4 5 6 7 8 9 10 11 12 13 14 15 16 17 18 19 20 21 22 23 24 25 26 27 28 29 30 31 32 33 34 35 36 37 38 39 40 41 42 43 44 45 46 47 48 49 50

000
ASUS41 KLWX 101810
RWRLWX

REGIONAL WEATHER ROUNDUP
NATIONAL WEATHER SERVICE BALTIMORE MD/WASHINGTON DC
100 PM EST SUN DEC 10 2017

Note: "FAIR" indicates few or no clouds below 12,000 feet
with no significant weather and/or obstructions to visibility.
 TC=TEMPERATURE CELSIUS

 * =Non NWS site. Station does not report precipitation (e.g. rain,
    snow, etc.), thunder, or fog.

DCZ001-MDZ009-015-VAZ040>042-051-053>054-101900-
WASHINGTON METRO

CITY           SKY/WX    TMP DP  RH WIND       PRES   REMARKS
WASHINGTON NAT MOSUNNY   40  25  55 W9        30.06F
DULLES         PTSUNNY   37  24  59 W14G20    30.04F WCI  28
ANDREWS AFB    PTSUNNY   39  23  54 W16G22    30.03F
FT BELVOIR     MOSUNNY   40  23  51 W13       30.05F
QUANTICO       MOSUNNY   42  25  50 W12       30.08F
COLLEGE PARK*  CLOUDY    37  23  56 SW7       30.05F
LEESBURG*      CLOUDY    37  28  70 W9G16     30.05F
MANASSAS*      PTSUNNY   38  25  59 W8        30.06F
GAITHERSBURG*  PTSUNNY   35  23  61 W10G17    30.03F WCI  27

$$

MDZ006>007-011-014-101900-
BALTIMORE METRO

CITY           SKY/WX    TMP DP  RH WIND       PRES   REMARKS
BWI AIRPORT    PTSUNNY   38  24  57 W13       30.04S
MD SCIENCE CTR   N/A     39  23  52 MISG      30.03F
MARTIN STATE   MOSUNNY   39  25  56 W12G21    30.05S
ANNAPOLIS      MOSUNNY   38  24  57 W9G20     30.04F
FORT MEADE*    CLOUDY    37  27  65 W17       30.07F WCI  28

$$

MDZ012-015-019>023-101900-
MARYLAND EASTERN SHORE

CITY           SKY/WX    TMP DP  RH WIND       PRES   REMARKS
OCEAN CITY     SUNNY     38  29  70 W13G22    30.05F
SALISBURY      SUNNY     37  25  61 W10G21    30.06F
BAY BRIDGE AP* MOSUNNY   39  23  52 W18G24    30.05F
CAMBRIDGE*     SUNNY     37  23  56 W9G18     30.07F
EASTON*        MOSUNNY   39  25  56 W15G21    30.09F

$$

MDZ017>025-101900-
SOUTHERN MARYLAND

CITY           SKY/WX    TMP DP  RH WIND       PRES   REMARKS
PATUXENT RIVER MOSUNNY   39  27  62 W15       30.07F
ST INIGOES     SUNNY     38  24  57 W12G20    30.07F
LEONARDTOWN*   PTSUNNY   37  27  65 W10       30.08F

$$

MDZ003>005-101900-
NORTH CENTRAL MARYLAND

CITY           SKY/WX    TMP DP  RH WIND       PRES   REMARKS
FREDERICK*     MOSUNNY   37  21  52 W8G17     30.06F
HAGERSTOWN APT CLOUDY    37  18  46 W15G24    30.00F WCI  28
WESTMINSTER*   MOSUNNY   36  25  64 W18G26    29.99S WCI  25

$$

MDZ501>502-101900-
WESTERN MARYLAND

CITY           SKY/WX    TMP DP  RH WIND       PRES   REMARKS
OAKLAND*       CLOUDY    21  18  86 W10G22    29.87F WCI  10
CUMBERLAND*    PTSUNNY   36  18  48 W10G21    30.06F WCI  28

$$

VAZ025>031-101900-
SHENANDOAH VALLEY

CITY           SKY/WX    TMP DP  RH WIND       PRES   REMARKS
WINCHESTER*    PTSUNNY   36  19  51 W15       30.02F WCI  26
FRONT ROYAL*   PTSUNNY   36  21  55 W12       30.02F WCI  27
LURAY*         MOSUNNY   37  23  56 SW10      30.03F
NEW MARKET*    SUNNY     37  17  45 SW10      30.02F
STAUNTON*      MOSUNNY   35  21  57 W8        30.05F WCI  29
WAYNESBORO*    MOSUNNY   34  20  57 SW7G16    30.04F

$$

WVZ021-048>050-054>055-101900-
EASTERN WEST VIRGINIA PANHANDLE

CITY           SKY/WX    TMP DP  RH WIND       PRES   REMARKS
MARTINSBURG    PTSUNNY   39  17  41 W17G29    30.01F
PETERSBURG*    CLOUDY    35  18  49 W6G21     30.04F

$$

VAZ036>039-050-101900-
CENTRAL FOOTHILLS

CITY           SKY/WX    TMP DP  RH WIND       PRES   REMARKS
CHARLOTTESVILL MOSUNNY   41  21  44 VRB5      30.05F
CULPEPER*      PTSUNNY   40  22  47 W6        30.06F
ORANGE*        PTSUNNY   39  25  56 SW8       30.06F
GORDONSVILLE*  SUNNY     38  22  52 W5        30.05F
WARRENTON*     MOSUNNY   38  22  53 W3        30.05F

$$

VAZ055>057-101900-
NORTH AND CENTRAL PIEDMONT

CITY           SKY/WX    TMP DP  RH WIND       PRES   REMARKS
FREDERICKSBRG* MOSUNNY   40  26  56 W8        30.07F
STAFFORD*      MOSUNNY   38  24  56 W10       30.10F

$$

NCZ024-NYZ072-PAZ021-071-VAZ022-071-101900-
OTHER REGIONAL OBSERVATIONS

CITY           SKY/WX    TMP DP  RH WIND       PRES   REMARKS
NEW YORK CITY  SUNNY     38  23  55 MISG      29.93S
PHILADELPHIA   MOSUNNY   39  23  52 W22G28    29.99F WCI  29
PITTSBURGH     CLOUDY    31  19  61 W12G23    29.97F WCI  22
ROANOKE        MOSUNNY   37  19  48 SW8       30.11F
RICHMOND       MOSUNNY   38  26  62 W12       30.10F
RALEIGH        MOSUNNY   40  24  53 W9        30.17F

$$

ANZ530>537-101900-
MARINE OBSERVATIONS

STATION/POSITION TIME  TEMP    WIND        PRES
                       AIR SEA DIR/SP/G
                 (UTC) (F)     (DEG/KT/KT) (MB)
THOMAS PT LIGHT  1800   38 48  280/ 12/ 16   N/A
BALT KEY BRIDGE  1748   38     270/ 19/ 23 1016.8F
COVE POINT       1748   38     290/  8/ 13 1018.9F
LEWISETTA        1736   37 44  260/ 11/ 13 1019.0F
SOLOMONS ISLAND  1748   39 49  270/  7/ 10 1018.0F
PINEY POINT      1736          300/ 11/ 13   N/A

$$




USA.gov is the U.S. government's official web portal to all federal, state and local government web resources and services.